H1 CPF 2 NER 2024 2 8 9 039 01 glonass116 H2 0907001 9116 36111 2024 2 8 0 0 0 2024 2 11 23 45 0 900 1 1 0 0 0 1 H9 10 0 60348 0.00000 0 -18376340.821 3593748.792 -17322621.325 10 0 60348 900.00000 0 -16567390.423 2239214.213 -19264807.657 10 0 60348 1800.00000 0 -14703648.506 609383.990 -20832803.320 10 0 60348 2700.00000 0 -12848089.984 -1274119.110 -21996124.259 10 0 60348 3600.00000 0 -11059946.794 -3377793.214 -22732142.126 10 0 60348 4500.00000 0 -9392325.132 -5657412.069 -23026525.065 10 0 60348 5400.00000 0 -7890097.221 -8059637.485 -22873517.906 10 0 60348 6300.00000 0 -6588155.290 -10524023.496 -22276056.338 10 0 60348 7200.00000 0 -5510100.233 -12985329.773 -21245712.768 10 0 60348 8100.00000 0 -4667419.207 -15376048.824 -19802474.678 10 0 60348 9000.00000 0 -4059185.918 -17629042.431 -17974359.407 10 0 60348 9900.00000 0 -3672295.486 -19680177.871 -15796872.410 10 0 60348 10800.00000 0 -3482223.291 -21470854.286 -13312319.097 10 0 60348 11700.00000 0 -3454275.093 -22950313.860 -10568983.185 10 0 60348 12600.00000 0 -3545275.021 -24077641.163 -7620187.385 10 0 60348 13500.00000 0 -3705619.336 -24823366.967 -4523254.584 10 0 60348 14400.00000 0 -3881608.360 -25170609.302 -1338389.933 10 0 60348 15300.00000 0 -4017957.034 -25115703.946 1872494.003 10 0 60348 16200.00000 0 -4060376.919 -24668298.060 5046985.623 10 0 60348 17100.00000 0 -3958119.404 -23850903.387 8123392.042 10 0 60348 18000.00000 0 -3666371.549 -22697928.261 11041941.839 10 0 60348 18900.00000 0 -3148402.329 -21254229.708 13745948.843 10 0 60348 19800.00000 0 -2377367.777 -19573247.049 16182913.991 10 0 60348 20700.00000 0 -1337698.061 -17714795.947 18305543.629 10 0 60348 21600.00000 0 -26007.346 -15742615.831 20072664.645 10 0 60348 22500.00000 0 1548512.502 -13721773.685 21450019.032 10 0 60348 23400.00000 0 3364231.587 -11716032.794 22410923.043 10 0 60348 24300.00000 0 5387749.882 -9785296.119 22936778.855 10 0 60348 25200.00000 0 7575066.208 -7983230.418 23017429.582 10 0 60348 26100.00000 0 9873200.318 -6355169.424 22651351.416 10 0 60348 27000.00000 0 12222201.323 -4936382.422 21845679.713 10 0 60348 27900.00000 0 14557459.774 -3750779.267 20616068.814 10 0 60348 28800.00000 0 16812228.016 -2810104.609 18986388.384 10 0 60348 29700.00000 0 18920244.811 -2113653.739 16988261.986 10 0 60348 30600.00000 0 20818355.730 -1648520.764 14660456.445 10 0 60348 31500.00000 0 22449020.785 -1390367.707 12048133.344 10 0 60348 32400.00000 0 23762605.234 -1304681.364 9201976.622 10 0 60348 33300.00000 0 24719358.253 -1348464.400 6177212.627 10 0 60348 34200.00000 0 25290996.938 -1472288.874 3032541.277 10 0 60348 35100.00000 0 25461829.376 -1622625.116 -171001.215 10 0 60348 36000.00000 0 25229369.661 -1744347.186 -3371226.086 10 0 60348 36900.00000 0 24604418.928 -1783308.543 -6505999.143 10 0 60348 37800.00000 0 23610608.811 -1688878.549 -9514447.627 10 0 60348 38700.00000 0 22283426.279 -1416331.880 -12338143.143 10 0 60348 39600.00000 0 20668760.617 -928989.159 -14922237.354 10 0 60348 40500.00000 0 18821033.304 -200017.502 -17216528.203 10 0 60348 41400.00000 0 16800989.016 786186.013 -19176435.816 10 0 60348 42300.00000 0 14673240.125 2033087.349 -20763869.111 10 0 60348 43200.00000 0 12503667.219 3531624.405 -21947966.380 10 0 60348 44100.00000 0 10356784.046 5260349.547 -22705695.656 10 0 60348 45000.00000 0 8293176.635 7186101.162 -23022303.335 10 0 60348 45900.00000 0 6367123.059 9265177.468 -22891602.546 10 0 60348 46800.00000 0 4624492.643 11444964.813 -22316095.678 10 0 60348 47700.00000 0 3101011.706 13665953.596 -21306928.613 10 0 60348 48600.00000 0 1820967.529 15864058.657 -19883677.343 10 0 60348 49500.00000 0 796403.944 17973148.095 -18073970.722 10 0 60348 50400.00000 0 26841.373 19927675.468 -15912956.294 10 0 60348 51300.00000 0 -500467.860 21665305.738 -13442619.102 10 0 60348 52200.00000 0 -809760.565 23129425.315 -10710966.327 10 0 60348 53100.00000 0 -935493.838 24271431.019 -7771093.398 10 0 60348 54000.00000 0 -920640.763 25052701.917 -4680149.667 10 0 60348 54900.00000 0 -814623.637 25446171.093 -1498223.922 10 0 60348 55800.00000 0 -670973.083 25437431.148 1712828.170 10 0 60348 56700.00000 0 -544813.115 25025326.892 4890591.312 10 0 60348 57600.00000 0 -490279.594 24222010.325 7973308.436 10 0 60348 58500.00000 0 -557982.355 23052455.751 10901084.741 10 0 60348 59400.00000 0 -792619.231 21553455.698 13617053.974 10 0 60348 60300.00000 0 -1230843.717 19772140.155 16068483.882 10 0 60348 61200.00000 0 -1899477.040 17764081.642 18207799.160 10 0 60348 62100.00000 0 -2814140.655 15591065.854 19993502.157 10 0 60348 63000.00000 0 -3978367.362 13318621.320 21390973.826 10 0 60348 63900.00000 0 -5383228.954 11013411.351 22373139.922 10 0 60348 64800.00000 0 -7007496.567 8740596.830 22920990.255 10 0 60348 65700.00000 0 -8818327.690 6561279.249 23023941.656 10 0 60348 66600.00000 0 -10772451.746 4530129.729 22680038.310 10 0 60348 67500.00000 0 -12817805.496 2693301.690 21895986.100 10 0 60348 68400.00000 0 -14895550.889 1086712.859 20687020.646 10 0 60348 69300.00000 0 -16942391.980 -265233.134 19076611.636 10 0 60348 70200.00000 0 -18893095.172 -1350433.638 17096009.075 10 0 60348 71100.00000 0 -20683108.432 -2169350.839 14783639.827 10 0 60348 72000.00000 0 -22251170.778 -2734742.766 12184365.693 10 0 60348 72900.00000 0 -23541803.549 -3070873.835 9348616.845 10 0 60348 73800.00000 0 -24507579.630 -3212238.991 6331416.879 10 0 60348 74700.00000 0 -25111075.701 -3201855.896 3191317.990 10 0 60348 75600.00000 0 -25326425.702 -3089197.746 -10733.332 10 0 60348 76500.00000 0 -25140410.119 -2927854.499 -3212578.215 10 0 60348 77400.00000 0 -24553035.032 -2773021.802 -6352051.865 10 0 60348 78300.00000 0 -23577576.207 -2678924.264 -9368190.964 10 0 60348 79200.00000 0 -22240085.924 -2696282.569 -12202418.339 10 0 60348 80100.00000 0 -20578382.770 -2869932.123 -14799681.523 10 0 60348 81000.00000 0 -18640566.353 -3236694.575 -17109522.948 10 0 60348 81900.00000 0 -16483118.732 -3823592.866 -19087060.825 10 0 60348 82800.00000 0 -14168671.678 -4646486.019 -20693861.622 10 0 60348 83700.00000 0 -11763532.721 -5709182.158 -21898687.322 10 0 60348 84600.00000 0 -9335072.870 -7003068.208 -22678103.100 10 0 60348 85500.00000 0 -6949084.603 -8507272.964 -23016933.805 10 0 60349 0.00000 0 -4667219.927 -10189357.786 -22908560.545 10 0 60349 900.00000 0 -2544613.501 -12006508.082 -22355051.553 10 0 60349 1800.00000 0 -627792.261 -13907174.594 -21367124.927 10 0 60349 2700.00000 0 1047046.117 -15833099.784 -19963943.569 10 0 60349 3600.00000 0 2455311.829 -17721643.220 -18172745.977 10 0 60349 4500.00000 0 3584807.309 -19508310.165 -16028319.683 10 0 60349 5400.00000 0 4435985.292 -21129377.724 -13572327.097 10 0 60349 6300.00000 0 5021670.751 -22524508.764 -10852496.459 10 0 60349 7200.00000 0 5366259.445 -23639243.869 -7921693.423 10 0 60349 8100.00000 0 5504427.874 -24427266.556 -4836891.240 10 0 60349 9000.00000 0 5479410.184 -24852346.256 -1658059.725 10 0 60349 9900.00000 0 5340915.846 -24889876.963 1553004.963 10 0 60349 10800.00000 0 5142777.306 -24527946.523 4733886.455 10 0 60349 11700.00000 0 4940428.150 -23767891.283 7822766.079 10 0 60349 12600.00000 0 4788319.544 -22624312.627 10759628.186 10 0 60349 13500.00000 0 4737385.185 -21124554.681 13487428.867 10 0 60349 14400.00000 0 4832662.760 -19307665.187 15953204.966 10 0 60349 15300.00000 0 5111173.087 -17222883.299 18109101.615 10 0 60349 16200.00000 0 5600147.004 -14927717.776 19913298.462 10 0 60349 17100.00000 0 6315675.152 -12485696.021 21330816.950 10 0 60349 18000.00000 0 7261837.858 -9963877.896 22334193.538 10 0 60349 18900.00000 0 8430352.042 -7430237.726 22904006.507 10 0 60349 19800.00000 0 9800750.360 -4951022.990 23029246.889 10 0 60349 20700.00000 0 11341085.521 -2588198.863 22707526.995 10 0 60349 21600.00000 0 13009130.878 -397083.905 21945123.058 10 0 60349 22500.00000 0 14754027.744 1575726.003 20756851.497 10 0 60349 23400.00000 0 16518311.265 3294060.412 19165781.284 10 0 60349 24300.00000 0 18240230.967 4733434.248 17202787.861 10 0 60349 25200.00000 0 19856269.680 5881813.831 14905956.874 10 0 60349 26100.00000 0 21303756.144 6739858.307 12319848.818 10 0 60349 27000.00000 0 22523462.433 7320627.618 9494638.305 10 0 60349 27900.00000 0 23462077.744 7648770.339 6485144.087 10 0 60349 28800.00000 0 24074454.936 7759226.411 3349768.270 10 0 60349 29700.00000 0 24325535.439 7695500.135 149364.992 10 0 60349 30600.00000 0 24191871.434 7507576.880 -3053939.584 10 0 60349 31500.00000 0 23662680.875 7249571.971 -6197953.001 10 0 60349 32400.00000 0 22740390.451 6977211.598 -9221624.350 10 0 60349 33300.00000 0 21440642.984 6745252.691 -12066230.555 10 0 60349 34200.00000 0 19791768.270 6604951.338 -14676517.747 10 0 60349 35100.00000 0 17833738.826 6601687.254 -17001775.356 10 0 60349 36000.00000 0 15616653.627 6772845.247 -18996821.940 10 0 60349 36900.00000 0 13198812.636 7146043.718 -20622883.541 10 0 60349 37800.00000 0 10644461.988 7737785.650 -21848347.606 10 0 60349 38700.00000 0 8021303.332 8552589.675 -22649378.013 10 0 60349 39600.00000 0 5397870.605 9582638.700 -23010379.365 10 0 60349 40500.00000 0 2840882.906 10807961.777 -22924301.738 10 0 60349 41400.00000 0 412683.001 12197142.606 -22392779.987 10 0 60349 42300.00000 0 -1831132.548 13708525.912 -21426104.835 10 0 60349 43200.00000 0 -3843793.712 15291872.033 -20043026.099 10 0 60349 44100.00000 0 -5589061.903 16890391.165 -18270391.516 10 0 60349 45000.00000 0 -7042489.172 18443072.616 -16142627.786 10 0 60349 45900.00000 0 -8192180.006 19887211.728 -13701073.450 10 0 60349 46800.00000 0 -9039024.850 21161028.682 -10993176.187 10 0 60349 47700.00000 0 -9596396.564 22206269.043 -8071569.893 10 0 60349 48600.00000 0 -9889323.708 22970676.534 -4993049.413 10 0 60349 49500.00000 0 -9953176.569 23410233.555 -1817463.001 10 0 60349 50400.00000 0 -9831922.532 23491074.654 1393455.537 10 0 60349 51300.00000 0 -9576025.629 23190991.796 4577291.778 10 0 60349 52200.00000 0 -9240080.176 22500467.574 7672168.613 10 0 60349 53100.00000 0 -8880279.651 21423192.419 10617952.781 10 0 60349 54000.00000 0 -8551828.815 19976043.747 13357425.976 10 0 60349 54900.00000 0 -8306409.297 18188527.701 15837397.345 10 0 60349 55800.00000 0 -8189806.384 16101706.804 18009735.561 10 0 60349 56700.00000 0 -8239797.647 13766658.367 19832300.498 10 0 60349 57600.00000 0 -8484392.745 11242527.986 21269756.792 10 0 60349 58500.00000 0 -8940498.693 8594259.265 22294254.015 10 0 60349 59400.00000 0 -9613066.861 5890094.026 22885960.976 10 0 60349 60300.00000 0 -10494757.626 3198946.537 23033444.545 10 0 60349 61200.00000 0 -11566136.899 587760.239 22733886.320 10 0 60349 62100.00000 0 -12796396.549 -1881044.124 21993133.515 10 0 60349 63000.00000 0 -14144568.899 -4151924.145 20825583.413 10 0 60349 63900.00000 0 -15561184.908 -6178278.442 19253903.740 10 0 60349 64800.00000 0 -16990307.185 -7924132.045 17308594.262 10 0 60349 65700.00000 0 -18371853.256 -9365375.673 15027397.730 10 0 60349 66600.00000 0 -19644112.337 -10490508.531 12454571.143 10 0 60349 67500.00000 0 -20746350.514 -11300854.893 9640030.920 10 0 60349 68400.00000 0 -21621395.393 -11810246.537 6638387.975 10 0 60349 69300.00000 0 -22218091.751 -12044185.309 3507891.048 10 0 60349 70200.00000 0 -22493524.939 -12038521.905 309298.466 10 0 60349 71100.00000 0 -22414918.202 -11837707.153 -2895299.915 10 0 60349 72000.00000 0 -21961123.606 -11492690.144 -6043687.625 10 0 60349 72900.00000 0 -21123643.158 -11058552.425 -9074729.801 10 0 60349 73800.00000 0 -19907136.354 -10591978.619 -11929561.049 10 0 60349 74700.00000 0 -18329391.927 -10148670.739 -14552729.528 10 0 60349 75600.00000 0 -16420764.031 -9780815.863 -16893274.866 10 0 60349 76500.00000 0 -14223095.565 -9534714.486 -18905718.826 10 0 60349 77400.00000 0 -11788172.778 -9448670.090 -20550949.438 10 0 60349 78300.00000 0 -9175774.911 -9551229.375 -21796981.510 10 0 60349 79200.00000 0 -6451399.422 -9859847.813 -22619578.911 10 0 60349 80100.00000 0 -3683756.851 -10380037.255 -23002726.691 10 0 60349 81000.00000 0 -942138.875 -11105032.073 -22938944.022 10 0 60349 81900.00000 0 1706231.681 -12015988.537 -22429431.931 10 0 60349 82800.00000 0 4198759.365 -13082709.767 -21484052.871 10 0 60349 83700.00000 0 6479837.429 -14264866.514 -20121142.310 10 0 60349 84600.00000 0 8502914.453 -15513663.141 -18367155.649 10 0 60349 85500.00000 0 10232180.881 -16773879.348 -16256156.906 10 0 60350 0.00000 0 11643805.822 -17986202.118 -13829158.900 10 0 60350 900.00000 0 12726673.976 -19089750.629 -11133326.002 10 0 60350 1800.00000 0 13482590.972 -20024686.226 -8221058.038 10 0 60350 2700.00000 0 13925951.997 -20734799.473 -5148968.735 10 0 60350 3600.00000 0 14082886.814 -21169963.183 -1976781.926 10 0 60350 4500.00000 0 13989919.083 -21288348.098 1233833.905 10 0 60350 5400.00000 0 13692197.594 -21058307.042 4420469.299 10 0 60350 6300.00000 0 13241375.217 -20459847.417 7521191.712 10 0 60350 7200.00000 0 12693226.293 -19485629.373 10475753.186 10 0 60350 8100.00000 0 12105104.149 -18141447.052 13226763.770 10 0 60350 9000.00000 0 11533346.990 -16446172.209 15720807.461 10 0 60350 9900.00000 0 11030742.389 -14431162.189 17909478.738 10 0 60350 10800.00000 0 10644157.778 -12139156.786 19750319.666 10 0 60350 11700.00000 0 10412437.063 -9622709.776 21207639.684 10 0 60350 12600.00000 0 10364651.949 -6942220.348 22253202.708 10 0 60350 13500.00000 0 10518781.437 -4163646.036 22866768.929 10 0 60350 14400.00000 0 10880874.790 -1355991.752 23036481.518 10 0 60350 15300.00000 0 11444732.915 1411321.365 22759091.455 10 0 60350 16200.00000 0 12192121.428 4071098.952 22040016.671 10 0 60350 17100.00000 0 13093506.427 6560919.556 20893234.738 10 0 60350 18000.00000 0 14109282.289 8825479.369 19341011.264 10 0 60350 18900.00000 0 15191440.221 10818639.384 17413469.195 10 0 60350 19800.00000 0 16285607.988 12505091.143 15148006.989 10 0 60350 20700.00000 0 17333375.557 13861572.932 12588576.514 10 0 60350 21600.00000 0 18274809.410 14877586.896 9784834.099 10 0 60350 22500.00000 0 19051050.112 15555588.200 6791180.696 10 0 60350 23400.00000 0 19606884.021 15910639.284 3665709.329 10 0 60350 24300.00000 0 19893180.832 15969544.552 469079.962 10 0 60350 25200.00000 0 19869094.041 15769502.628 -2736656.538 10 0 60350 26100.00000 0 19503931.116 15356333.495 -5889262.439 10 0 60350 27000.00000 0 18778613.930 14782355.758 -8927521.671 10 0 60350 27900.00000 0 17686667.041 14104004.020 -11792429.176 10 0 60350 28800.00000 0 16234691.262 13379287.270 -14428337.641 10 0 60350 29700.00000 0 14442301.467 12665195.885 -16784039.193 10 0 60350 30600.00000 0 12341530.110 12015166.927 -18813760.897 10 0 60350 31500.00000 0 9975720.282 11476714.908 -20478054.656 10 0 60350 32400.00000 0 7397953.484 11089328.118 -21744564.322 10 0 60350 33300.00000 0 4669076.686 10882719.349 -22588655.257 10 0 60350 34200.00000 0 1855409.950 10875504.925 -22993894.250 10 0 60350 35100.00000 0 -973770.855 11074367.870 -22952370.635 10 0 60350 36000.00000 0 -3748872.388 11473740.713 -22464852.403 10 0 60350 36900.00000 0 -6402634.261 12056021.649 -21540774.194 10 0 60350 37800.00000 0 -8872682.117 12792315.307 -20198057.215 10 0 60350 38700.00000 0 -11103877.836 13643667.404 -18462764.221 10 0 60350 39600.00000 0 -13050369.686 14562741.638 -16368595.859 10 0 60350 40500.00000 0 -14677257.643 15495868.505 -13956237.715 10 0 60350 41400.00000 0 -15961805.063 16385379.842 -11272570.351 10 0 60350 42300.00000 0 -16894146.767 17172130.628 -8369757.456 10 0 60350 43200.00000 0 -17477464.724 17798101.401 -5304229.751 10 0 60350 44100.00000 0 -17727624.871 18208971.037 -2135584.531 10 0 60350 45000.00000 0 -17672291.361 18356550.639 1074577.354 10 0 60350 45900.00000 0 -17349556.617 18200975.060 4263853.928 10 0 60350 46800.00000 0 -16806146.076 17712558.767 7370259.908 10 0 60350 47700.00000 0 -16095274.470 16873236.948 10333435.509 10 0 60350 48600.00000 0 -15274245.143 15677530.425 13095822.147 10 0 60350 49500.00000 0 -14401894.639 14132993.015 15603781.759 10 0 60350 50400.00000 0 -13535991.020 12260122.022 17808637.747 10 0 60350 51300.00000 0 -12730696.098 10091735.045 19667617.411 10 0 60350 52200.00000 0 -12034198.630 7671838.719 21144677.896 10 0 60350 53100.00000 0 -11486618.057 5054036.160 22211200.143 10 0 60350 54000.00000 0 -11118266.624 2299539.000 22846538.082 10 0 60350 54900.00000 0 -10948342.460 -525133.878 23038413.170 10 0 60350 55800.00000 0 -10984108.007 -3350675.956 22783147.308 10 0 60350 56700.00000 0 -11220587.727 -6107627.258 22085730.203 10 0 60350 57600.00000 0 -11640797.401 -8729014.773 20959720.227 10 0 60350 58500.00000 0 -12216495.085 -11152890.534 19426980.847 10 0 60350 59400.00000 0 -12909422.091 -13324663.172 17517257.607 10 0 60350 60300.00000 0 -13672981.926 -15199127.149 15267603.558 10 0 60350 61200.00000 0 -14454286.774 -16742106.397 12721663.810 10 0 60350 62100.00000 0 -15196485.677 -17931644.895 9928832.553 10 0 60350 63000.00000 0 -15841276.624 -18758695.508 6943298.325 10 0 60350 63900.00000 0 -16331496.840 -19227279.100 3822995.665 10 0 60350 64800.00000 0 -16613682.052 -19354108.047 628483.145 10 0 60350 65700.00000 0 -16640486.614 -19167690.592 -2578230.598 10 0 60350 66600.00000 0 -16372861.912 -18706954.257 -5734889.981 10 0 60350 67500.00000 0 -15781900.563 -18019446.704 -8780201.264 10 0 60350 68400.00000 0 -14850267.753 -17159190.231 -11655023.310 10 0 60350 69300.00000 0 -13573158.389 -16184280.635 -14303516.917 10 0 60350 70200.00000 0 -11958738.612 -15154331.912 -16674230.186 10 0 60350 71100.00000 0 -10028051.828 -14127874.669 -18721098.736 10 0 60350 72000.00000 0 -7814391.895 -13159817.995 -20404341.263 10 0 60350 72900.00000 0 -5362168.375 -12299081.715 -21691233.138 10 0 60350 73800.00000 0 -2725309.979 -11586498.722 -22556743.169 10 0 60350 74700.00000 0 34728.367 -11053075.572 -22984021.275 10 0 60350 75600.00000 0 2851272.948 -10718684.483 -22964727.778 10 0 60350 76500.00000 0 5654958.150 -10591241.663 -22499197.917 10 0 60350 77400.00000 0 8376368.599 -10666406.522 -21596438.336 10 0 60350 78300.00000 0 10948687.464 -10927814.437 -20273955.369 10 0 60350 79200.00000 0 13310241.457 -11347833.302 -18557418.137 10 0 60350 80100.00000 0 15406837.163 -11888812.080 -16480162.564 10 0 60350 81000.00000 0 17193791.901 -12504768.767 -14082545.519 10 0 60350 81900.00000 0 18637574.896 -13143446.528 -11411161.249 10 0 60350 82800.00000 0 19716990.705 -13748651.051 -8517935.083 10 0 60350 83700.00000 0 20423855.948 -14262770.111 -5459111.956 10 0 60350 84600.00000 0 20763141.695 -14629368.386 -2294159.556 10 0 60350 85500.00000 0 20752576.291 -14795747.190 915392.197 10 0 60351 0.00000 0 20421726.304 -14715360.216 4107151.935 10 0 60351 900.00000 0 19810595.047 -14349982.212 7219085.649 10 0 60351 1800.00000 0 18967799.260 -13671538.340 10190724.781 10 0 60351 2700.00000 0 17948401.216 -12663515.978 12964345.264 10 0 60351 3600.00000 0 16811488.891 -11321898.739 15486089.874 10 0 60351 4500.00000 0 15617606.779 -9655582.651 17707013.513 10 0 60351 5400.00000 0 14426146.029 -7686256.358 19584030.951 10 0 60351 6300.00000 0 13292803.926 -5447749.677 21080748.896 10 0 60351 7200.00000 0 12267219.447 -2984877.165 22168166.779 10 0 60351 8100.00000 0 11390883.854 -351824.322 22825233.344 10 0 60351 9000.00000 0 10695413.413 2389857.074 23039249.000 10 0 60351 9900.00000 0 10201255.974 5173561.838 22806106.827 10 0 60351 10800.00000 0 9916884.832 7930157.219 22130368.161 10 0 60351 11700.00000 0 9838512.875 10590617.818 21025171.651 10 0 60351 12600.00000 0 9950338.305 13088661.126 19511977.726 10 0 60351 13500.00000 0 10225311.088 15363275.343 17620153.303 10 0 60351 14400.00000 0 10626387.558 17361035.455 15386404.488 10 0 60351 15300.00000 0 11108220.236 19038112.202 12854067.816 10 0 60351 16200.00000 0 11619211.714 20361891.175 10072273.235 10 0 60351 17100.00000 0 12103846.066 21312135.330 7094994.540 10 0 60351 18000.00000 0 12505199.531 21881643.029 3980005.233 10 0 60351 18900.00000 0 12767524.462 22076374.689 787759.774 10 0 60351 19800.00000 0 12838797.259 21915043.239 -2419778.259 10 0 60351 20700.00000 0 12673122.323 21428186.013 -5580338.292 10 0 60351 21600.00000 0 12232889.956 20656757.454 -8632551.721 10 0 60351 22500.00000 0 11490596.306 19650302.097 -11517144.027 10 0 60351 23400.00000 0 10430247.630 18464784.989 -14178086.630 10 0 60351 24300.00000 0 9048288.551 17160170.988 -16563685.904 10 0 60351 25200.00000 0 7354013.922 15797854.957 -18627588.095 10 0 60351 26100.00000 0 5369445.634 14438050.972 -20329680.539 10 0 60351 27000.00000 0 3128678.068 13137250.295 -21636871.760 10 0 60351 27900.00000 0 676718.138 11945854.796 -22523735.417 10 0 60351 28800.00000 0 -1932132.994 10906085.078 -22973005.737 10 0 60351 29700.00000 0 -4636290.328 10050250.866 -22975914.922 10 0 60351 30600.00000 0 -7369205.005 9399455.995 -22532366.043 10 0 60351 31500.00000 0 -10061898.285 8962792.085 -21650937.947 10 0 60351 32400.00000 0 -12645604.944 8737054.430 -20348721.900 10 0 60351 33300.00000 0 -15054416.836 8706991.785 -18650992.776 10 0 60351 34200.00000 0 -17227817.066 8846079.216 -16590720.779 10 0 60351 35100.00000 0 -19112999.639 9117781.204 -14207932.741 10 0 60351 36000.00000 0 -20666878.160 9477251.409 -11548935.001 10 0 60351 36900.00000 0 -21857699.965 9873396.983 -8665412.739 10 0 60351 37800.00000 0 -22666198.487 10251219.749 -5613423.172 10 0 60351 38700.00000 0 -23086235.986 10554334.680 -2452302.325 10 0 60351 39600.00000 0 -23124910.160 10727558.426 756492.977 10 0 60351 40500.00000 0 -22802120.835 10719457.606 3950584.843 10 0 60351 41400.00000 0 -22149615.695 10484748.116 7067891.814 10 0 60351 42300.00000 0 -21209556.109 9986443.154 10047839.708 10 0 60351 43200.00000 0 -20032664.309 9197658.258 12832541.680 10 0 60351 44100.00000 0 -18676030.755 8102996.346 15367924.119 10 0 60351 45000.00000 0 -17200674.711 6699453.575 17604776.225 10 0 60351 45900.00000 0 -15668961.119 4996807.180 19499702.969 10 0 60351 46800.00000 0 -14141982.554 3017468.266 21015963.201 10 0 60351 47700.00000 0 -12677016.149 795805.032 22124177.185 10 0 60351 48600.00000 0 -11325161.773 -1623036.012 22802890.518 10 0 60351 49500.00000 0 -10129259.803 -4184762.426 23038984.239 10 0 60351 50400.00000 0 -9122174.855 -6827954.629 22827923.895 10 0 60351 51300.00000 0 -8325516.316 -9486387.996 22173843.313 10 0 60351 52200.00000 0 -7748848.175 -12091562.700 21089461.857 10 0 60351 53100.00000 0 -7389420.219 -14575337.133 19595836.908 10 0 60351 54000.00000 0 -7232430.921 -16872556.453 17721956.308 10 0 60351 54900.00000 0 -7251810.197 -18923567.954 15504178.346 10 0 60351 55800.00000 0 -7411488.569 -20676519.449 12985529.704 10 0 60351 56700.00000 0 -7667098.928 -22089345.678 10214874.458 10 0 60351 57600.00000 0 -7968038.962 -23131360.603 7245969.700 10 0 60351 58500.00000 0 -8259807.082 -23784389.532 4136425.662 10 0 60351 59400.00000 0 -8486513.102 -24043394.181 946590.220 10 0 60351 60300.00000 0 -8593457.380 -23916564.798 -2261620.797 10 0 60351 61200.00000 0 -8529669.113 -23424875.707 -5425924.716 10 0 60351 62100.00000 0 -8250295.990 -22601123.141 -8484881.138 10 0 60351 63000.00000 0 -7718743.571 -21488485.905 -11379085.382 10 0 60351 63900.00000 0 -6908473.192 -20138669.478 -14052322.796 10 0 60351 64800.00000 0 -5804381.466 -18609711.606 -16452661.352 10 0 60351 65700.00000 0 -4403702.079 -16963541.583 -18533461.149 10 0 60351 66600.00000 0 -2716390.558 -15263395.725 -20254281.183 10 0 60351 67500.00000 0 -764974.433 -13571197.362 -21581665.827 10 0 60351 68400.00000 0 1416126.451 -11945011.059 -22489795.884 10 0 60351 69300.00000 0 3781782.497 -10436677.531 -22960991.699 10 0 60351 70200.00000 0 6277791.831 -9089727.977 -22986058.675 10 0 60351 71100.00000 0 8842905.711 -7937664.801 -22564468.533 10 0 60351 72000.00000 0 11411158.569 -7002680.256 -21704372.681 10 0 60351 72900.00000 0 13914406.625 -6294866.228 -20422447.226 10 0 60351 73800.00000 0 16284970.107 -5811947.726 -18743572.284 10 0 60351 74700.00000 0 18458269.498 -5539550.712 -16700351.407 10 0 60351 75600.00000 0 20375346.308 -5451992.435 -14332480.016 10 0 60351 76500.00000 0 21985163.373 -5513560.353 -11685974.727 10 0 60351 77400.00000 0 23246588.669 -5680225.108 -8812278.298 10 0 60351 78300.00000 0 24129979.738 -5901714.506 -5767257.535 10 0 60351 79200.00000 0 24618302.486 -6123860.123 -2610113.741 10 0 60351 80100.00000 0 24707737.588 -6291116.409 597772.694 10 0 60351 81000.00000 0 24407749.413 -6349144.822 3794040.570 10 0 60351 81900.00000 0 23740615.037 -6247352.672 6916565.095 10 0 60351 82800.00000 0 22740433.757 -5941278.289 9904669.637 10 0 60351 83700.00000 0 21451659.470 -5394720.745 12700307.858 10 0 60351 84600.00000 0 19927218.334 -4581523.259 15249192.798 10 0 60351 85500.00000 0 18226291.491 -3486934.242 17501850.695 99